Time,TemperatureF,DewpointF,PressureIn,WindDirection,WindDirectionDegrees,WindSpeedMPH,WindSpeedGustMPH,Humidity,HourlyPrecipIn,Conditions,Clouds,dailyrainin,SoftwareType,DateUTC
2013-03-30 00:03:00,55.4,48.7,29.61,East,90,2.0,2.0,78,0.00,,,0.00,meteohub,2013-03-30 07:03:00,
2013-03-30 00:08:00,55.6,48.6,29.61,East,90,1.0,2.0,77,0.00,,,0.00,meteohub,2013-03-30 07:08:00,
2013-03-30 00:13:00,55.8,48.7,29.61,East,90,2.0,2.0,77,0.00,,,0.00,meteohub,2013-03-30 07:13:00,
2013-03-30 00:18:00,55.9,48.9,29.61,North,0,2.0,4.0,77,0.00,,,0.00,meteohub,2013-03-30 07:18:00,
2013-03-30 00:23:00,55.9,48.6,29.61,North,0,2.0,4.0,76,0.00,,,0.00,meteohub,2013-03-30 07:23:00,
2013-03-30 00:29:00,55.6,48.2,29.61,East,90,2.0,4.0,76,0.00,,,0.00,meteohub,2013-03-30 07:29:00,
2013-03-30 00:34:00,55.6,48.2,29.61,NE,45,2.0,2.0,76,0.00,,,0.00,meteohub,2013-03-30 07:34:00,
2013-03-30 00:39:00,55.6,48.2,29.61,NE,45,2.0,2.0,76,0.00,,,0.00,meteohub,2013-03-30 07:39:00,
2013-03-30 00:44:00,55.6,48.2,29.61,North,0,2.0,2.0,76,0.00,,,0.00,meteohub,2013-03-30 07:44:00,
2013-03-30 00:50:00,55.6,47.8,29.61,NE,45,2.0,3.0,75,0.00,,,0.00,meteohub,2013-03-30 07:50:00,
2013-03-30 00:55:00,55.4,48.0,29.61,NE,45,2.0,5.0,76,0.00,,,0.00,meteohub,2013-03-30 07:55:00,
2013-03-30 01:00:00,54.9,47.8,29.60,North,0,2.0,5.0,77,0.00,,,0.00,meteohub,2013-03-30 08:00:00,
2013-03-30 01:05:00,54.5,47.8,29.61,NE,45,3.0,3.0,78,0.00,,,0.00,meteohub,2013-03-30 08:05:00,
2013-03-30 01:11:00,54.5,47.8,29.61,West,270,1.0,3.0,78,0.00,,,0.00,meteohub,2013-03-30 08:11:00,
2013-03-30 01:16:00,54.3,47.7,29.61,SE,135,2.0,3.0,78,0.00,,,0.00,meteohub,2013-03-30 08:16:00,
2013-03-30 01:21:00,54.5,47.8,29.60,East,90,2.0,3.0,78,0.00,,,0.00,meteohub,2013-03-30 08:21:00,
2013-03-30 01:26:00,54.3,47.7,29.60,NE,45,2.0,3.0,78,0.00,,,0.00,meteohub,2013-03-30 08:26:00,
2013-03-30 01:31:00,54.1,47.5,29.60,East,90,3.0,3.0,78,0.00,,,0.00,meteohub,2013-03-30 08:31:00,
2013-03-30 01:37:00,54.3,47.7,29.60,East,90,2.0,4.0,78,0.00,,,0.00,meteohub,2013-03-30 08:37:00,
2013-03-30 01:42:00,54.1,47.5,29.60,NE,45,4.0,4.0,78,0.00,,,0.00,meteohub,2013-03-30 08:42:00,
2013-03-30 01:47:00,54.5,47.8,29.60,East,90,2.0,4.0,78,0.00,,,0.00,meteohub,2013-03-30 08:47:00,
2013-03-30 01:52:00,54.1,47.5,29.60,NE,45,2.0,4.0,78,0.00,,,0.00,meteohub,2013-03-30 08:52:00,
2013-03-30 01:57:00,54.0,47.3,29.60,East,90,2.0,4.0,78,0.00,,,0.00,meteohub,2013-03-30 08:57:00,
2013-03-30 02:02:00,53.8,47.1,29.60,East,90,0.0,4.0,78,0.00,,,0.00,meteohub,2013-03-30 09:02:00,
2013-03-30 02:08:00,53.8,47.1,29.60,NE,45,1.0,3.0,78,0.00,,,0.00,meteohub,2013-03-30 09:08:00,
2013-03-30 02:13:00,53.4,46.8,29.60,NE,45,0.0,3.0,78,0.00,,,0.00,meteohub,2013-03-30 09:13:00,
2013-03-30 02:18:00,52.7,46.8,29.60,SE,135,0.0,2.0,80,0.00,,,0.00,meteohub,2013-03-30 09:18:00,
2013-03-30 02:23:00,51.8,46.2,29.60,South,180,1.0,2.0,81,0.00,,,0.00,meteohub,2013-03-30 09:23:00,
2013-03-30 02:29:00,51.3,46.0,29.60,South,180,1.0,2.0,82,0.00,,,0.00,meteohub,2013-03-30 09:29:00,
2013-03-30 02:34:00,50.9,46.2,29.60,NE,45,1.0,2.0,84,0.00,,,0.00,meteohub,2013-03-30 09:34:00,
2013-03-30 02:39:00,51.1,46.8,29.60,NE,45,3.0,3.0,85,0.00,,,0.00,meteohub,2013-03-30 09:39:00,
2013-03-30 02:45:00,51.4,47.1,29.60,NE,45,1.0,2.0,85,0.00,,,0.00,meteohub,2013-03-30 09:45:00,
2013-03-30 02:50:00,51.4,47.1,29.60,North,0,1.0,4.0,85,0.00,,,0.00,meteohub,2013-03-30 09:50:00,
2013-03-30 02:55:00,51.4,47.1,29.60,North,0,2.0,4.0,85,0.00,,,0.00,meteohub,2013-03-30 09:55:00,
2013-03-30 03:00:00,51.4,47.1,29.60,NE,45,1.0,4.0,85,0.00,,,0.00,meteohub,2013-03-30 10:00:00,
2013-03-30 03:05:00,51.6,47.3,29.59,North,0,2.0,2.0,85,0.00,,,0.00,meteohub,2013-03-30 10:05:00,
2013-03-30 03:10:00,51.8,47.1,29.59,East,90,2.0,3.0,84,0.00,,,0.00,meteohub,2013-03-30 10:10:00,
2013-03-30 03:16:00,51.6,47.3,29.60,East,90,2.0,3.0,85,0.00,,,0.00,meteohub,2013-03-30 10:16:00,
2013-03-30 03:21:00,51.6,47.3,29.59,SE,135,0.0,3.0,85,0.00,,,0.00,meteohub,2013-03-30 10:21:00,
2013-03-30 03:26:00,51.6,47.3,29.60,SE,135,0.0,3.0,85,0.00,,,0.00,meteohub,2013-03-30 10:26:00,
2013-03-30 03:31:00,51.3,46.9,29.59,South,180,0.0,3.0,85,0.00,,,0.00,meteohub,2013-03-30 10:31:00,
2013-03-30 03:37:00,50.9,46.6,29.59,SW,225,2.0,2.0,85,0.00,,,0.00,meteohub,2013-03-30 10:37:00,
2013-03-30 03:42:00,50.4,46.0,29.59,SW,225,1.0,2.0,85,0.00,,,0.00,meteohub,2013-03-30 10:42:00,
2013-03-30 03:47:00,49.6,45.7,29.59,SW,225,1.0,2.0,86,0.00,,,0.00,meteohub,2013-03-30 10:47:00,
2013-03-30 03:52:00,49.3,45.5,29.60,West,270,1.0,2.0,87,0.00,,,0.00,meteohub,2013-03-30 10:52:00,
2013-03-30 03:57:00,49.1,45.7,29.59,West,270,0.0,2.0,88,0.00,,,0.00,meteohub,2013-03-30 10:57:00,
2013-03-30 04:02:00,49.3,46.2,29.59,West,270,0.0,1.0,89,0.00,,,0.00,meteohub,2013-03-30 11:02:00,
2013-03-30 04:07:00,49.5,46.4,29.59,West,270,0.0,1.0,89,0.00,,,0.00,meteohub,2013-03-30 11:07:00,
2013-03-30 04:13:00,49.5,46.0,29.59,West,270,0.0,0.0,88,0.00,,,0.00,meteohub,2013-03-30 11:13:00,
2013-03-30 04:18:00,49.8,46.4,29.59,NE,45,0.0,0.0,88,0.00,,,0.00,meteohub,2013-03-30 11:18:00,
2013-03-30 04:23:00,50.2,46.8,29.59,North,0,1.0,2.0,88,0.00,,,0.00,meteohub,2013-03-30 11:23:00,
2013-03-30 04:29:00,50.4,46.6,29.58,NE,45,2.0,2.0,87,0.00,,,0.00,meteohub,2013-03-30 11:29:00,
2013-03-30 04:34:00,50.5,46.6,29.58,North,0,2.0,2.0,86,0.00,,,0.00,meteohub,2013-03-30 11:34:00,
2013-03-30 04:39:00,50.7,46.4,29.59,NE,45,2.0,2.0,85,0.00,,,0.00,meteohub,2013-03-30 11:39:00,
2013-03-30 04:44:00,50.7,46.4,29.58,NE,45,2.0,3.0,85,0.00,,,0.00,meteohub,2013-03-30 11:44:00,
2013-03-30 04:49:00,50.7,46.0,29.59,North,0,1.0,3.0,84,0.00,,,0.00,meteohub,2013-03-30 11:49:00,
2013-03-30 04:54:00,50.7,46.4,29.58,East,90,2.0,3.0,85,0.00,,,0.00,meteohub,2013-03-30 11:54:00,
2013-03-30 04:59:00,50.7,46.0,29.58,NE,45,2.0,2.0,84,0.00,,,0.00,meteohub,2013-03-30 11:59:00,
2013-03-30 05:04:00,50.5,45.9,29.58,NE,45,1.0,2.0,84,0.00,,,0.00,meteohub,2013-03-30 12:04:00,
2013-03-30 05:09:00,50.4,46.0,29.58,NE,45,0.0,2.0,85,0.00,,,0.00,meteohub,2013-03-30 12:09:00,
2013-03-30 05:15:00,50.0,45.7,29.57,NE,45,0.0,2.0,85,0.00,,,0.00,meteohub,2013-03-30 12:15:00,
2013-03-30 05:20:00,49.6,45.7,29.57,NE,45,0.0,2.0,86,0.00,,,0.00,meteohub,2013-03-30 12:20:00,
2013-03-30 05:25:00,49.1,45.1,29.57,West,270,2.0,2.0,86,0.00,,,0.00,meteohub,2013-03-30 12:25:00,
2013-03-30 05:30:00,48.2,44.6,29.57,West,270,0.0,2.0,87,0.00,,,0.00,meteohub,2013-03-30 12:30:00,
2013-03-30 05:35:00,47.8,44.8,29.58,South,180,2.0,2.0,89,0.00,,,0.00,meteohub,2013-03-30 12:35:00,
2013-03-30 05:40:00,47.7,44.6,29.57,South,180,0.0,2.0,89,0.00,,,0.00,meteohub,2013-03-30 12:40:00,
2013-03-30 05:45:00,47.7,45.0,29.57,North,0,1.0,2.0,90,0.00,,,0.00,meteohub,2013-03-30 12:45:00,
2013-03-30 05:51:00,48.0,45.1,29.57,North,0,0.0,2.0,90,0.00,,,0.00,meteohub,2013-03-30 12:51:00,
2013-03-30 05:56:00,47.8,45.0,29.58,North,0,1.0,2.0,90,0.00,,,0.00,meteohub,2013-03-30 12:56:00,
2013-03-30 06:01:00,47.8,45.0,29.58,SE,135,1.0,2.0,90,0.00,,,0.00,meteohub,2013-03-30 13:01:00,
2013-03-30 06:06:00,47.5,44.8,29.58,SW,225,2.0,2.0,90,0.00,,,0.00,meteohub,2013-03-30 13:06:00,
2013-03-30 06:12:00,47.5,44.8,29.58,SW,225,0.0,2.0,90,0.00,,,0.00,meteohub,2013-03-30 13:12:00,
2013-03-30 06:17:00,47.3,44.6,29.58,SW,225,0.0,2.0,90,0.00,,,0.00,meteohub,2013-03-30 13:17:00,
2013-03-30 06:22:00,47.3,44.8,29.57,West,270,0.0,2.0,91,0.00,,,0.00,meteohub,2013-03-30 13:22:00,
2013-03-30 06:27:00,47.7,45.1,29.58,NE,45,0.0,2.0,91,0.00,,,0.00,meteohub,2013-03-30 13:27:00,
2013-03-30 06:33:00,47.8,45.3,29.57,North,0,0.0,1.0,91,0.00,,,0.00,meteohub,2013-03-30 13:33:00,
2013-03-30 06:38:00,47.5,44.8,29.57,West,270,0.0,0.0,90,0.00,,,0.00,meteohub,2013-03-30 13:38:00,
2013-03-30 06:43:00,46.9,44.2,29.57,NW,315,0.0,0.0,90,0.00,,,0.00,meteohub,2013-03-30 13:43:00,
2013-03-30 06:48:00,47.3,45.1,29.57,North,0,2.0,0.0,92,0.00,,,0.00,meteohub,2013-03-30 13:48:00,
2013-03-30 06:54:00,47.8,45.3,29.57,NE,45,0.0,3.0,91,0.00,,,0.00,meteohub,2013-03-30 13:54:00,
2013-03-30 06:59:00,47.8,45.3,29.58,North,0,0.0,3.0,91,0.00,,,0.00,meteohub,2013-03-30 13:59:00,
2013-03-30 07:04:00,47.8,45.3,29.58,North,0,0.0,3.0,91,0.00,,,0.00,meteohub,2013-03-30 14:04:00,
2013-03-30 07:10:00,48.0,45.1,29.58,NE,45,0.0,2.0,90,0.00,,,0.00,meteohub,2013-03-30 14:10:00,
2013-03-30 07:15:00,48.2,45.3,29.58,East,90,0.0,2.0,90,0.00,,,0.00,meteohub,2013-03-30 14:15:00,
2013-03-30 07:20:00,48.7,45.9,29.58,East,90,0.0,0.0,90,0.00,,,0.00,meteohub,2013-03-30 14:20:00,
2013-03-30 07:25:00,49.6,46.8,29.58,North,0,0.0,0.0,90,0.00,,,0.00,meteohub,2013-03-30 14:25:00,
2013-03-30 07:30:00,50.7,47.3,29.58,NE,45,0.0,0.0,88,0.00,,,0.00,meteohub,2013-03-30 14:30:00,
2013-03-30 07:36:00,52.2,48.0,29.58,NE,45,0.0,0.0,86,0.00,,,0.00,meteohub,2013-03-30 14:36:00,
2013-03-30 07:41:00,53.1,48.4,29.57,NE,45,0.0,0.0,84,0.00,,,0.00,meteohub,2013-03-30 14:41:00,
2013-03-30 07:46:00,53.4,48.4,29.58,NE,45,0.0,0.0,83,0.00,,,0.00,meteohub,2013-03-30 14:46:00,
2013-03-30 07:51:00,54.3,48.6,29.58,NE,45,0.0,0.0,81,0.00,,,0.00,meteohub,2013-03-30 14:51:00,
2013-03-30 07:57:00,55.4,50.0,29.57,NE,45,0.0,0.0,82,0.00,,,0.00,meteohub,2013-03-30 14:57:00,
2013-03-30 08:02:00,56.5,50.0,29.58,South,180,0.0,0.0,79,0.00,,,0.00,meteohub,2013-03-30 15:02:00,
2013-03-30 08:07:00,57.7,49.8,29.58,NE,45,2.0,0.0,75,0.00,,,0.00,meteohub,2013-03-30 15:07:00,
2013-03-30 08:12:00,57.7,48.7,29.58,West,270,0.0,5.0,72,0.00,,,0.00,meteohub,2013-03-30 15:12:00,
2013-03-30 08:17:00,58.3,48.9,29.57,NE,45,3.0,5.0,71,0.00,,,0.00,meteohub,2013-03-30 15:17:00,
2013-03-30 08:22:00,58.3,48.2,29.57,SE,135,2.0,5.0,69,0.00,,,0.00,meteohub,2013-03-30 15:22:00,
2013-03-30 08:27:00,59.0,49.3,29.57,NE,45,2.0,4.0,70,0.00,,,0.00,meteohub,2013-03-30 15:27:00,
2013-03-30 08:33:00,59.7,50.0,29.57,SE,135,2.0,3.0,70,0.00,,,0.00,meteohub,2013-03-30 15:33:00,
2013-03-30 08:38:00,60.6,49.6,29.57,South,180,1.0,2.0,67,0.00,,,0.00,meteohub,2013-03-30 15:38:00,
2013-03-30 08:43:00,60.4,50.2,29.56,SW,225,2.0,2.0,69,0.00,,,0.00,meteohub,2013-03-30 15:43:00,
2013-03-30 08:48:00,60.1,49.8,29.57,South,180,2.0,3.0,69,0.00,,,0.00,meteohub,2013-03-30 15:48:00,
2013-03-30 08:53:00,59.9,49.6,29.57,East,90,2.0,3.0,69,0.00,,,0.00,meteohub,2013-03-30 15:53:00,
2013-03-30 08:58:00,61.0,49.5,29.57,NE,45,2.0,4.0,66,0.00,,,0.00,meteohub,2013-03-30 15:58:00,
2013-03-30 09:04:00,61.3,48.6,29.57,NE,45,2.0,4.0,63,0.00,,,0.00,meteohub,2013-03-30 16:04:00,
2013-03-30 09:09:00,62.1,49.3,29.58,East,90,3.0,4.0,63,0.00,,,0.00,meteohub,2013-03-30 16:09:00,
2013-03-30 09:14:00,62.4,49.6,29.57,NE,45,2.0,4.0,63,0.00,,,0.00,meteohub,2013-03-30 16:14:00,
2013-03-30 09:19:00,62.6,48.9,29.57,NE,45,4.0,4.0,61,0.00,,,0.00,meteohub,2013-03-30 16:19:00,
2013-03-30 09:24:00,61.9,48.7,29.57,East,90,2.0,4.0,62,0.00,,,0.00,meteohub,2013-03-30 16:24:00,
2013-03-30 09:30:00,63.1,49.5,29.57,NE,45,2.0,4.0,61,0.00,,,0.00,meteohub,2013-03-30 16:30:00,
2013-03-30 09:35:00,63.5,48.9,29.57,NE,45,4.0,4.0,59,0.00,,,0.00,meteohub,2013-03-30 16:35:00,
2013-03-30 09:40:00,64.0,48.6,29.57,NE,45,3.0,4.0,57,0.00,,,0.00,meteohub,2013-03-30 16:40:00,
2013-03-30 09:45:00,63.9,47.8,29.57,NNE,23,5.0,5.0,56,0.00,,,0.00,meteohub,2013-03-30 16:45:00,
2013-03-30 09:51:00,64.0,49.5,29.57,NE,45,2.0,5.0,59,0.00,,,0.00,meteohub,2013-03-30 16:51:00,
2013-03-30 09:56:00,64.6,48.9,29.57,East,90,2.0,8.0,57,0.00,,,0.00,meteohub,2013-03-30 16:56:00,
2013-03-30 10:01:00,64.6,48.9,29.57,North,0,4.0,8.0,57,0.00,,,0.00,meteohub,2013-03-30 17:01:00,
2013-03-30 10:06:00,64.0,48.0,29.57,North,0,5.0,8.0,56,0.00,,,0.00,meteohub,2013-03-30 17:06:00,
2013-03-30 10:11:00,63.3,48.4,29.57,NE,45,6.0,8.0,58,0.00,,,0.00,meteohub,2013-03-30 17:11:00,
2013-03-30 10:16:00,63.3,48.4,29.57,NE,45,4.0,8.0,58,0.00,,,0.00,meteohub,2013-03-30 17:16:00,
2013-03-30 10:21:00,63.9,47.8,29.57,NE,45,7.0,8.0,56,0.00,,,0.00,meteohub,2013-03-30 17:21:00,
2013-03-30 10:27:00,63.5,47.5,29.57,North,0,6.0,8.0,56,0.00,,,0.00,meteohub,2013-03-30 17:27:00,
2013-03-30 10:32:00,64.6,48.0,29.56,NE,45,5.0,8.0,55,0.00,,,0.00,meteohub,2013-03-30 17:32:00,
2013-03-30 10:37:00,64.2,47.7,29.57,North,0,4.0,7.0,55,0.00,,,0.00,meteohub,2013-03-30 17:37:00,
2013-03-30 10:43:00,64.8,48.7,29.57,NE,45,6.0,8.0,56,0.00,,,0.00,meteohub,2013-03-30 17:43:00,
2013-03-30 10:48:00,66.0,49.8,29.56,South,180,3.0,8.0,56,0.00,,,0.00,meteohub,2013-03-30 17:48:00,
2013-03-30 10:53:00,66.7,49.1,29.56,SW,225,2.0,8.0,53,0.00,,,0.00,meteohub,2013-03-30 17:53:00,
2013-03-30 10:58:00,67.3,49.6,29.56,South,180,2.0,6.0,53,0.00,,,0.00,meteohub,2013-03-30 17:58:00,
2013-03-30 11:03:00,68.2,48.4,29.56,NE,45,5.0,7.0,49,0.00,,,0.00,meteohub,2013-03-30 18:03:00,
2013-03-30 11:09:00,67.6,48.9,29.56,North,0,4.0,7.0,51,0.00,,,0.00,meteohub,2013-03-30 18:09:00,
2013-03-30 11:14:00,68.9,49.5,29.56,NE,45,5.0,8.0,50,0.00,,,0.00,meteohub,2013-03-30 18:14:00,
2013-03-30 11:19:00,69.4,49.5,29.56,NE,45,4.0,8.0,49,0.00,,,0.00,meteohub,2013-03-30 18:19:00,
2013-03-30 11:24:00,69.3,49.3,29.56,North,0,4.0,8.0,49,0.00,,,0.00,meteohub,2013-03-30 18:24:00,
2013-03-30 11:30:00,68.5,48.0,29.55,NE,45,2.0,5.0,48,0.00,,,0.00,meteohub,2013-03-30 18:30:00,
2013-03-30 11:35:00,68.2,48.9,29.55,NE,45,4.0,5.0,50,0.00,,,0.00,meteohub,2013-03-30 18:35:00,
2013-03-30 11:40:00,67.8,48.6,29.55,NW,315,5.0,6.0,50,0.00,,,0.00,meteohub,2013-03-30 18:40:00,
2013-03-30 11:45:00,68.5,49.6,29.56,East,90,3.0,6.0,51,0.00,,,0.00,meteohub,2013-03-30 18:45:00,
2013-03-30 11:50:00,68.5,49.1,29.55,NE,45,4.0,7.0,50,0.00,,,0.00,meteohub,2013-03-30 18:50:00,
2013-03-30 11:55:00,69.6,49.6,29.55,NE,45,5.0,7.0,49,0.00,,,0.00,meteohub,2013-03-30 18:55:00,
2013-03-30 12:01:00,70.0,50.0,29.55,NE,45,6.0,7.0,49,0.00,,,0.00,meteohub,2013-03-30 19:01:00,
2013-03-30 12:06:00,69.4,50.0,29.55,East,90,6.0,7.0,50,0.00,,,0.00,meteohub,2013-03-30 19:06:00,
2013-03-30 12:11:00,69.3,49.8,29.55,East,90,8.0,8.0,50,0.00,,,0.00,meteohub,2013-03-30 19:11:00,
2013-03-30 12:17:00,70.0,50.0,29.55,NE,45,5.0,8.0,49,0.00,,,0.00,meteohub,2013-03-30 19:17:00,
2013-03-30 12:22:00,70.2,50.2,29.54,East,90,5.0,8.0,49,0.00,,,0.00,meteohub,2013-03-30 19:22:00,
2013-03-30 12:27:00,70.2,50.7,29.54,North,0,7.0,8.0,50,0.00,,,0.00,meteohub,2013-03-30 19:27:00,
2013-03-30 12:32:00,70.3,51.4,29.54,NE,45,4.0,8.0,51,0.00,,,0.00,meteohub,2013-03-30 19:32:00,
2013-03-30 12:37:00,70.5,51.4,29.54,East,90,3.0,8.0,51,0.00,,,0.00,meteohub,2013-03-30 19:37:00,
2013-03-30 12:42:00,71.1,51.4,29.54,North,0,8.0,8.0,50,0.00,,,0.00,meteohub,2013-03-30 19:42:00,
2013-03-30 12:47:00,71.4,51.8,29.53,East,90,3.0,8.0,50,0.00,,,0.00,meteohub,2013-03-30 19:47:00,
2013-03-30 12:52:00,72.1,50.7,29.53,East,90,5.0,8.0,47,0.00,,,0.00,meteohub,2013-03-30 19:52:00,
2013-03-30 12:57:00,72.1,51.4,29.52,NE,45,5.0,8.0,48,0.00,,,0.00,meteohub,2013-03-30 19:57:00,
2013-03-30 13:02:00,72.5,52.3,29.53,North,0,4.0,8.0,49,0.00,,,0.00,meteohub,2013-03-30 20:02:00,
2013-03-30 13:07:00,73.0,51.6,29.52,NNE,23,4.0,8.0,47,0.00,,,0.00,meteohub,2013-03-30 20:07:00,
2013-03-30 13:12:00,73.9,51.3,29.52,North,0,8.0,8.0,45,0.00,,,0.00,meteohub,2013-03-30 20:12:00,
2013-03-30 13:17:00,73.8,51.6,29.52,NE,45,5.0,8.0,46,0.00,,,0.00,meteohub,2013-03-30 20:17:00,
2013-03-30 13:22:00,73.8,51.6,29.52,East,90,4.0,8.0,46,0.00,,,0.00,meteohub,2013-03-30 20:22:00,
2013-03-30 13:27:00,74.3,52.2,29.52,NE,45,4.0,8.0,46,0.00,,,0.00,meteohub,2013-03-30 20:27:00,
2013-03-30 13:32:00,74.3,52.2,29.52,NE,45,9.0,9.0,46,0.00,,,0.00,meteohub,2013-03-30 20:32:00,
2013-03-30 13:37:00,73.4,52.5,29.52,East,90,7.0,9.0,48,0.00,,,0.00,meteohub,2013-03-30 20:37:00,
2013-03-30 13:42:00,73.4,52.5,29.51,SE,135,5.0,9.0,48,0.00,,,0.00,meteohub,2013-03-30 20:42:00,
2013-03-30 13:47:00,73.8,52.3,29.51,NE,45,5.0,9.0,47,0.00,,,0.00,meteohub,2013-03-30 20:47:00,
2013-03-30 13:52:00,73.8,52.3,29.51,NE,45,5.0,8.0,47,0.00,,,0.00,meteohub,2013-03-30 20:52:00,
2013-03-30 13:57:00,73.6,52.2,29.51,NE,45,4.0,8.0,47,0.00,,,0.00,meteohub,2013-03-30 20:57:00,
2013-03-30 14:02:00,74.3,52.7,29.51,East,90,6.0,8.0,47,0.00,,,0.00,meteohub,2013-03-30 21:02:00,
2013-03-30 14:07:00,74.3,52.2,29.51,NE,45,6.0,8.0,46,0.00,,,0.00,meteohub,2013-03-30 21:07:00,
2013-03-30 14:12:00,73.9,52.5,29.50,NE,45,5.0,9.0,47,0.00,,,0.00,meteohub,2013-03-30 21:12:00,
2013-03-30 14:17:00,75.2,52.3,29.50,NE,45,9.0,9.0,45,0.00,,,0.00,meteohub,2013-03-30 21:17:00,
2013-03-30 14:22:00,74.8,52.2,29.50,East,90,5.0,9.0,45,0.00,,,0.00,meteohub,2013-03-30 21:22:00,
2013-03-30 14:27:00,75.2,51.8,29.49,NE,45,7.0,9.0,44,0.00,,,0.00,meteohub,2013-03-30 21:27:00,
2013-03-30 14:32:00,75.9,51.8,29.49,NE,45,4.0,9.0,43,0.00,,,0.00,meteohub,2013-03-30 21:32:00,
2013-03-30 14:37:00,76.1,50.0,29.49,North,0,6.0,7.0,40,0.00,,,0.00,meteohub,2013-03-30 21:37:00,
2013-03-30 14:43:00,76.8,50.0,29.49,East,90,5.0,8.0,39,0.00,,,0.00,meteohub,2013-03-30 21:43:00,
2013-03-30 14:48:00,77.0,50.2,29.49,NE,45,7.0,8.0,39,0.00,,,0.00,meteohub,2013-03-30 21:48:00,
2013-03-30 14:53:00,77.4,50.5,29.48,NE,45,4.0,8.0,39,0.00,,,0.00,meteohub,2013-03-30 21:53:00,
2013-03-30 14:59:00,78.3,51.3,29.48,NE,45,5.0,8.0,39,0.00,,,0.00,meteohub,2013-03-30 21:59:00,
2013-03-30 15:04:00,78.4,50.0,29.48,NE,45,5.0,8.0,37,0.00,,,0.00,meteohub,2013-03-30 22:04:00,
2013-03-30 15:09:00,78.1,49.6,29.48,East,90,6.0,8.0,37,0.00,,,0.00,meteohub,2013-03-30 22:09:00,
2013-03-30 15:14:00,78.1,50.4,29.47,NE,45,6.0,8.0,38,0.00,,,0.00,meteohub,2013-03-30 22:14:00,
2013-03-30 15:19:00,77.7,50.0,29.47,NE,45,6.0,8.0,38,0.00,,,0.00,meteohub,2013-03-30 22:19:00,
2013-03-30 15:24:00,77.5,50.0,29.47,East,90,5.0,8.0,38,0.00,,,0.00,meteohub,2013-03-30 22:24:00,
2013-03-30 15:30:00,79.0,52.0,29.47,SE,135,2.0,8.0,39,0.00,,,0.00,meteohub,2013-03-30 22:30:00,
2013-03-30 15:35:00,80.1,47.5,29.47,NE,45,4.0,8.0,32,0.00,,,0.00,meteohub,2013-03-30 22:35:00,
2013-03-30 15:40:00,79.9,46.6,29.46,NE,45,8.0,8.0,31,0.00,,,0.00,meteohub,2013-03-30 22:40:00,
2013-03-30 15:45:00,81.0,45.7,29.47,West,270,4.0,8.0,29,0.00,,,0.00,meteohub,2013-03-30 22:45:00,
2013-03-30 15:50:00,81.5,46.2,29.46,NE,45,7.0,8.0,29,0.00,,,0.00,meteohub,2013-03-30 22:50:00,
2013-03-30 15:56:00,81.5,47.1,29.46,North,0,3.0,7.0,30,0.00,,,0.00,meteohub,2013-03-30 22:56:00,
2013-03-30 16:01:00,82.6,47.1,29.46,NE,45,3.0,7.0,29,0.00,,,0.00,meteohub,2013-03-30 23:01:00,
2013-03-30 16:07:00,82.8,45.3,29.45,East,90,3.0,8.0,27,0.00,,,0.00,meteohub,2013-03-30 23:07:00,
2013-03-30 16:12:00,82.6,45.1,29.45,NE,45,5.0,8.0,27,0.00,,,0.00,meteohub,2013-03-30 23:12:00,
2013-03-30 16:17:00,82.2,47.7,29.45,South,180,2.0,8.0,30,0.00,,,0.00,meteohub,2013-03-30 23:17:00,
2013-03-30 16:22:00,82.4,46.0,29.45,NE,45,4.0,10.0,28,0.00,,,0.00,meteohub,2013-03-30 23:22:00,
2013-03-30 16:27:00,81.7,46.4,29.45,NE,45,6.0,10.0,29,0.00,,,0.00,meteohub,2013-03-30 23:27:00,
2013-03-30 16:32:00,81.0,46.6,29.44,NE,45,5.0,10.0,30,0.00,,,0.00,meteohub,2013-03-30 23:32:00,
2013-03-30 16:37:00,81.1,46.8,29.44,NE,45,4.0,10.0,30,0.00,,,0.00,meteohub,2013-03-30 23:37:00,
2013-03-30 16:42:00,81.7,47.3,29.44,West,270,6.0,10.0,30,0.00,,,0.00,meteohub,2013-03-30 23:42:00,
2013-03-30 16:47:00,81.9,46.4,29.44,NE,45,6.0,10.0,29,0.00,,,0.00,meteohub,2013-03-30 23:47:00,
2013-03-30 16:52:00,81.7,48.0,29.44,East,90,6.0,7.0,31,0.00,,,0.00,meteohub,2013-03-30 23:52:00,
2013-03-30 16:57:00,81.0,48.4,29.44,NE,45,5.0,7.0,32,0.00,,,0.00,meteohub,2013-03-30 23:57:00,
2013-03-30 17:02:00,80.8,48.2,29.44,NE,45,5.0,8.0,32,0.00,,,0.00,meteohub,2013-03-31 00:02:00,
2013-03-30 17:07:00,80.2,49.3,29.43,East,90,6.0,8.0,34,0.00,,,0.00,meteohub,2013-03-31 00:07:00,
2013-03-30 17:13:00,79.9,48.2,29.43,East,90,6.0,9.0,33,0.00,,,0.00,meteohub,2013-03-31 00:13:00,
2013-03-30 17:18:00,79.5,48.7,29.43,SW,225,3.0,9.0,34,0.00,,,0.00,meteohub,2013-03-31 00:18:00,
2013-03-30 17:23:00,80.1,47.5,29.43,NE,45,5.0,8.0,32,0.00,,,0.00,meteohub,2013-03-31 00:23:00,
2013-03-30 17:28:00,80.1,46.8,29.43,North,0,5.0,8.0,31,0.00,,,0.00,meteohub,2013-03-31 00:28:00,
2013-03-30 17:33:00,80.8,48.2,29.42,NE,45,3.0,8.0,32,0.00,,,0.00,meteohub,2013-03-31 00:33:00,
2013-03-30 17:38:00,81.7,48.0,29.42,North,0,3.0,8.0,31,0.00,,,0.00,meteohub,2013-03-31 00:38:00,
2013-03-30 17:44:00,81.9,47.3,29.42,NE,45,5.0,6.0,30,0.00,,,0.00,meteohub,2013-03-31 00:44:00,
2013-03-30 17:49:00,81.7,48.9,29.42,South,180,2.0,5.0,32,0.00,,,0.00,meteohub,2013-03-31 00:49:00,
2013-03-30 17:54:00,81.3,49.5,29.42,NE,45,2.0,5.0,33,0.00,,,0.00,meteohub,2013-03-31 00:54:00,
2013-03-30 17:59:00,80.6,48.0,29.42,NNE,23,5.0,6.0,32,0.00,,,0.00,meteohub,2013-03-31 00:59:00,
2013-03-30 18:04:00,79.7,48.9,29.42,NE,45,2.0,7.0,34,0.00,,,0.00,meteohub,2013-03-31 01:04:00,
2013-03-30 18:09:00,80.4,49.5,29.42,NE,45,2.0,7.0,34,0.00,,,0.00,meteohub,2013-03-31 01:09:00,
2013-03-30 18:14:00,81.5,49.6,29.41,North,0,3.0,7.0,33,0.00,,,0.00,meteohub,2013-03-31 01:14:00,
2013-03-30 18:20:00,80.2,49.3,29.41,East,90,1.0,7.0,34,0.00,,,0.00,meteohub,2013-03-31 01:20:00,
2013-03-30 18:25:00,79.3,49.3,29.41,SE,135,2.0,7.0,35,0.00,,,0.00,meteohub,2013-03-31 01:25:00,
2013-03-30 18:31:00,79.5,49.5,29.41,NE,45,4.0,6.0,35,0.00,,,0.00,meteohub,2013-03-31 01:31:00,
2013-03-30 18:36:00,79.0,48.9,29.40,North,0,3.0,6.0,35,0.00,,,0.00,meteohub,2013-03-31 01:36:00,
2013-03-30 18:41:00,78.8,49.6,29.40,NE,45,4.0,4.0,36,0.00,,,0.00,meteohub,2013-03-31 01:41:00,
2013-03-30 18:47:00,77.4,49.1,29.40,NE,45,4.0,4.0,37,0.00,,,0.00,meteohub,2013-03-31 01:47:00,
2013-03-30 18:52:00,76.1,49.3,29.40,NE,45,2.0,5.0,39,0.00,,,0.00,meteohub,2013-03-31 01:52:00,
2013-03-30 18:57:00,75.7,50.4,29.40,SW,225,4.0,6.0,41,0.00,,,0.00,meteohub,2013-03-31 01:57:00,
2013-03-30 19:02:00,75.2,49.3,29.40,North,0,2.0,6.0,40,0.00,,,0.00,meteohub,2013-03-31 02:02:00,
2013-03-30 19:07:00,74.7,49.5,29.40,North,0,3.0,6.0,41,0.00,,,0.00,meteohub,2013-03-31 02:07:00,
2013-03-30 19:12:00,73.4,50.2,29.39,NW,315,4.0,6.0,44,0.00,,,0.00,meteohub,2013-03-31 02:12:00,
2013-03-30 19:17:00,72.1,49.6,29.40,East,90,4.0,5.0,45,0.00,,,0.00,meteohub,2013-03-31 02:17:00,
2013-03-30 19:22:00,71.1,49.8,29.39,South,180,2.0,5.0,47,0.00,,,0.00,meteohub,2013-03-31 02:22:00,
2013-03-30 19:27:00,70.2,49.6,29.39,South,180,2.0,5.0,48,0.00,,,0.00,meteohub,2013-03-31 02:27:00,
2013-03-30 19:32:00,69.8,49.8,29.39,West,270,2.0,5.0,49,0.00,,,0.00,meteohub,2013-03-31 02:32:00,
2013-03-30 19:37:00,69.3,49.8,29.39,East,90,2.0,8.0,50,0.00,,,0.00,meteohub,2013-03-31 02:37:00,
2013-03-30 19:42:00,68.7,49.8,29.39,East,90,2.0,8.0,51,0.00,,,0.00,meteohub,2013-03-31 02:42:00,
2013-03-30 19:48:00,68.4,50.0,29.39,North,0,2.0,5.0,52,0.00,,,0.00,meteohub,2013-03-31 02:48:00,
2013-03-30 19:53:00,68.2,49.8,29.39,SE,135,1.0,8.0,52,0.00,,,0.00,meteohub,2013-03-31 02:53:00,
2013-03-30 19:58:00,68.0,49.6,29.39,East,90,3.0,8.0,52,0.00,,,0.00,meteohub,2013-03-31 02:58:00,
2013-03-30 20:04:00,67.8,49.1,29.39,East,90,3.0,8.0,51,0.00,,,0.00,meteohub,2013-03-31 03:04:00,
2013-03-30 20:09:00,67.8,49.1,29.39,SE,135,4.0,4.0,51,0.00,,,0.00,meteohub,2013-03-31 03:09:00,
2013-03-30 20:14:00,68.2,48.9,29.39,NE,45,4.0,4.0,50,0.00,,,0.00,meteohub,2013-03-31 03:14:00,
2013-03-30 20:19:00,68.2,48.9,29.39,North,0,3.0,4.0,50,0.00,,,0.00,meteohub,2013-03-31 03:19:00,
2013-03-30 20:24:00,68.5,48.6,29.39,North,0,4.0,4.0,49,0.00,,,0.00,meteohub,2013-03-31 03:24:00,
2013-03-30 20:30:00,68.4,48.4,29.38,North,0,4.0,8.0,49,0.00,,,0.00,meteohub,2013-03-31 03:30:00,
2013-03-30 20:35:00,68.4,48.4,29.38,NE,45,3.0,8.0,49,0.00,,,0.00,meteohub,2013-03-31 03:35:00,
2013-03-30 20:40:00,68.4,48.9,29.38,SE,135,2.0,8.0,50,0.00,,,0.00,meteohub,2013-03-31 03:40:00,
2013-03-30 20:45:00,68.2,48.9,29.38,NE,45,3.0,11.0,50,0.00,,,0.00,meteohub,2013-03-31 03:45:00,
2013-03-30 20:51:00,68.2,48.4,29.38,West,270,2.0,5.0,49,0.00,,,0.00,meteohub,2013-03-31 03:51:00,
2013-03-30 20:56:00,68.2,48.4,29.38,NE,45,4.0,11.0,49,0.00,,,0.00,meteohub,2013-03-31 03:56:00,
2013-03-30 21:00:00,68.0,48.7,29.38,NE,45,3.0,11.0,50,0.00,,,0.00,meteohub,2013-03-31 04:00:00,
2013-03-30 21:01:00,68.0,48.7,29.38,North,0,3.0,11.0,50,0.00,,,0.00,meteohub,2013-03-31 04:01:00,
2013-03-30 21:02:00,68.0,48.7,29.38,NW,315,7.0,11.0,50,0.00,,,0.00,meteohub,2013-03-31 04:02:00,
2013-03-30 21:07:00,68.0,48.7,29.38,NE,45,3.0,11.0,50,0.00,,,0.00,meteohub,2013-03-31 04:07:00,
2013-03-30 21:08:00,68.0,48.7,29.38,NW,315,7.0,11.0,50,0.00,,,0.00,meteohub,2013-03-31 04:08:00,
2013-03-30 21:13:00,67.8,48.6,29.39,SE,135,2.0,8.0,50,0.00,,,0.00,meteohub,2013-03-31 04:13:00,
2013-03-30 21:18:00,67.8,48.6,29.38,NE,45,3.0,8.0,50,0.00,,,0.00,meteohub,2013-03-31 04:18:00,
2013-03-30 21:23:00,68.0,48.2,29.39,West,270,6.0,7.0,49,0.00,,,0.00,meteohub,2013-03-31 04:23:00,
2013-03-30 21:28:00,68.0,48.2,29.39,South,180,2.0,7.0,49,0.00,,,0.00,meteohub,2013-03-31 04:28:00,
2013-03-30 21:34:00,67.8,48.0,29.39,West,270,4.0,7.0,49,0.00,,,0.00,meteohub,2013-03-31 04:34:00,
2013-03-30 21:39:00,67.5,48.2,29.39,West,270,4.0,6.0,50,0.00,,,0.00,meteohub,2013-03-31 04:39:00,
2013-03-30 21:44:00,66.9,48.2,29.39,NE,45,3.0,5.0,51,0.00,,,0.00,meteohub,2013-03-31 04:44:00,
2013-03-30 21:49:00,66.7,48.0,29.39,SE,135,2.0,4.0,51,0.00,,,0.00,meteohub,2013-03-31 04:49:00,
2013-03-30 21:55:00,66.2,48.6,29.39,SW,225,3.0,5.0,53,0.00,,,0.00,meteohub,2013-03-31 04:55:00,
2013-03-30 22:00:00,65.8,47.7,29.39,South,180,2.0,5.0,52,0.00,,,0.00,meteohub,2013-03-31 05:00:00,
2013-03-30 22:05:00,65.3,47.7,29.39,SW,225,1.0,4.0,53,0.00,,,0.00,meteohub,2013-03-31 05:05:00,
2013-03-30 22:10:00,64.8,47.7,29.39,South,180,1.0,4.0,54,0.00,,,0.00,meteohub,2013-03-31 05:10:00,
2013-03-30 22:15:00,64.2,47.7,29.39,SW,225,2.0,2.0,55,0.00,,,0.00,meteohub,2013-03-31 05:15:00,
2013-03-30 22:21:00,64.0,47.5,29.39,SE,135,2.0,2.0,55,0.00,,,0.00,meteohub,2013-03-31 05:21:00,
2013-03-30 22:26:00,64.2,48.2,29.39,South,180,1.0,3.0,56,0.00,,,0.00,meteohub,2013-03-31 05:26:00,
2013-03-30 22:31:00,63.9,47.8,29.39,SW,225,1.0,3.0,56,0.00,,,0.00,meteohub,2013-03-31 05:31:00,
2013-03-30 22:37:00,63.5,48.0,29.39,SW,225,1.0,3.0,57,0.00,,,0.00,meteohub,2013-03-31 05:37:00,
2013-03-30 22:42:00,63.0,48.0,29.39,South,180,1.0,2.0,58,0.00,,,0.00,meteohub,2013-03-31 05:42:00,
2013-03-30 22:47:00,63.0,48.0,29.40,SE,135,1.0,2.0,58,0.00,,,0.00,meteohub,2013-03-31 05:47:00,
2013-03-30 22:52:00,63.1,48.2,29.40,SE,135,2.0,2.0,58,0.00,,,0.00,meteohub,2013-03-31 05:52:00,
2013-03-30 22:57:00,63.3,47.8,29.39,SW,225,3.0,3.0,57,0.00,,,0.00,meteohub,2013-03-31 05:57:00,
2013-03-30 23:02:00,64.0,48.0,29.39,NE,45,3.0,3.0,56,0.00,,,0.00,meteohub,2013-03-31 06:02:00,
2013-03-30 23:07:00,64.9,47.8,29.39,North,0,2.0,4.0,54,0.00,,,0.00,meteohub,2013-03-31 06:07:00,
2013-03-30 23:12:00,64.9,47.8,29.39,North,0,2.0,4.0,54,0.00,,,0.00,meteohub,2013-03-31 06:12:00,
2013-03-30 23:17:00,64.8,47.7,29.39,North,0,1.0,4.0,54,0.00,,,0.00,meteohub,2013-03-31 06:17:00,
2013-03-30 23:22:00,63.7,48.2,29.39,SW,225,1.0,4.0,57,0.00,,,0.00,meteohub,2013-03-31 06:22:00,
2013-03-30 23:27:00,62.6,47.7,29.39,SW,225,0.0,3.0,58,0.00,,,0.00,meteohub,2013-03-31 06:27:00,
2013-03-30 23:32:00,62.2,47.7,29.39,South,180,2.0,3.0,59,0.00,,,0.00,meteohub,2013-03-31 06:32:00,
2013-03-30 23:38:00,62.4,47.8,29.39,South,180,1.0,2.0,59,0.00,,,0.00,meteohub,2013-03-31 06:38:00,
2013-03-30 23:43:00,62.4,47.8,29.39,SW,225,2.0,2.0,59,0.00,,,0.00,meteohub,2013-03-31 06:43:00,
2013-03-30 23:48:00,62.2,48.2,29.39,SE,135,2.0,3.0,60,0.00,,,0.00,meteohub,2013-03-31 06:48:00,
2013-03-30 23:54:00,61.5,48.0,29.40,SW,225,2.0,3.0,61,0.00,,,0.00,meteohub,2013-03-31 06:54:00,
2013-03-30 23:59:00,61.3,48.2,29.40,SW,225,2.0,3.0,62,0.00,,,0.00,meteohub,2013-03-31 06:59:00,